Regional Weather Roundup
Issued by NWS

Home | Current Version | Previous Version | Text Only | Print | Product List | Glossary On
Versions: 1 2 3 4 5 6 7 8 9 10 11 12 13 14 15 16 17 18 19 20 21 22 23 24 25 26 27 28 29 30 31 32 33 34 35 36 37 38 39 40 41 42 43 44 45 46 47 48
000
ASUS45 KBOU 261307
RWRCO

WEATHER ROUNDUP FOR COLORADO
NATIONAL WEATHER SERVICE DENVER/BOULDER CO
600 AM MST MON JAN 26 2015

NOTE: "FAIR" INDICATES FEW OR NO CLOUDS BELOW 12000 FEET WITH NO
SIGNIFICANT WEATHER AND/OR OBSTRUCTIONS TO VISIBILITY.

COZ001>005-013-030-031-261400-
...NORTHWEST COLORADO...

CITY           SKY/WX    TMP DP  RH WIND       PRES   REMARKS
CRAIG          CLEAR     11   8  88 CALM      30.46R
HAYDEN         CLEAR     23  18  80 E12       30.44R WCI  12
MEEKER         PTCLDY    16  12  84 CALM      30.45R
MOUNT WERNER   NOT AVBL
STEAMBOAT SPGS CLEAR     18  17  96 CALM      30.46R
WALDEN         PTCLDY    14  12  92 SE3       30.44R
$$

COZ006>008-011-261400-
...WEST CENTRAL VALLEYS...

CITY           SKY/WX    TMP DP  RH WIND       PRES   REMARKS
GRAND JUNCTION PTCLDY    27  22  81 SE8       30.41R WCI  19
MONTROSE       PTCLDY    23  19  85 S8        30.44R WCI  14
EAGLE          CLEAR     18  16  93 E5        30.53R WCI  11
RIFLE          MOCLDY    25  20  81 CALM      30.44S
DELTA          PTCLDY    23  19  85 NE6       30.44R WCI  16
NUCLA          PTCLDY    30  23  74 SE6       30.43R WCI  24
$$

COZ017>023-064>068-261400-
...SOUTHWEST COLORADO...

CITY           SKY/WX    TMP DP  RH WIND       PRES   REMARKS
DURANGO        PTCLDY    22  19  89 E5        30.39R WCI  16
CORTEZ         CLEAR     19  17  92 CALM      30.38S
PAGOSA SPRINGS PTCLDY    21  16  82 CALM      30.42S
TELLURIDE      PTCLDY    32  16  50 SE8       30.46R WCI  25
WOLF CREEK PAS NOT AVBL
$$

COZ009-010-012-014-032>034-037-058>063-261400-
...CENTRAL COLORADO...

CITY           SKY/WX    TMP DP  RH WIND       PRES   REMARKS
ASPEN          CLEAR     18  13  80 CALM      30.45R
BUENA VISTA    CLEAR     30  19  62 CALM      30.42R
COPPER MTN     PTCLDY    34  12  40 NW8G20    30.54R WCI  27
BERTHOUD PASS  FAIR      23  18  80 N17       30.54S WCI   9
COTTONWOOD PAS CLEAR     41  10  28 SE6       30.45R
GUNNISON       PTCLDY    -2  -2 100 CALM      30.54R
KREMMLING      FOG      N/A N/A N/A CALM      30.53R VSB 1/4
LEADVILLE      CLEAR     16  11  80 N5        30.47R WCI   9
MONARCH PASS   PTCLDY    32  10  40 W7        30.64R WCI  26
SALIDA         CLEAR     30  20  65 SW7       30.49R WCI  23
SUNLIGHT       PTCLDY    34  21  60 CALM        N/A
WILKERSON PASS PTCLDY    36  10  35 N13G22    30.50S
$$

COZ069>075-261400-
...SAN LUIS VALLEY/SANGRE DE CRISTO MOUNTAINS...

CITY           SKY/WX    TMP DP  RH WIND       PRES   REMARKS
ALAMOSA        MOCLDY     8   4  83 CALM      30.42R
LA VETA PASS   NOT AVBL
SAGUACHE       PTCLDY    23  16  74 N5        30.42S WCI  17
$$

COZ035-036-038>040-261400-
...NORTHERN COLORADO FRONT RANGE...

CITY           SKY/WX    TMP DP  RH WIND       PRES   REMARKS
DENVER INTL AP PTCLDY    36  25  64 S10       30.22R
DMNS CITY PARK   N/A     40  22  50 S7        30.23R
AURORA         PTCLDY    39  23  52 S12       30.24R
FRONT RANGE AP NOT AVBL
ERIE MUNI ARPT CLEAR     28  24  86 S3        30.21S
BOULDER MUN AP CLEAR     37  23  56 CALM      30.21R
CENTENNIAL     PTCLDY    38  23  55 S6        30.24R
BROOMFIELD     CLEAR     41  23  48 SE3       30.22S
FORT COLLINS   PTCLDY    36  25  64 SE6       30.21S
LONGMONT       PTCLDY    34  24  66 W3        30.23S
$$

COZ041-046-047-076>085-087-088-261400-
...PIKES PEAK/PALMER DIVIDE AND SOUTHERN FOOTHILLS...

CITY           SKY/WX    TMP DP  RH WIND       PRES   REMARKS
COLO. SPRINGS  PTCLDY    35  23  61 N7        30.28R WCI  29
A. F. ACADEMY  CLEAR     27  21  77 N14       30.27R WCI  15
ELLICOTT       CLEAR    N/A N/A N/A NE7       30.26R
FALCON         CLEAR     35  21  57 NW7       30.29S WCI  29
FORT CARSON    CLEAR     36  23  60 NW13      30.24S
LIMON          CLEAR     35  25  66 W15       30.22R WCI  25
MONUMENT HILL  PTCLDY    34  21  60 SW7       30.28S WCI  28
TRINIDAD       CLEAR     36  23  59 W17       30.27S
$$

COZ042>045-048>051-090-091-261400-
...NORTHEAST COLORADO...

CITY           SKY/WX    TMP DP  RH WIND       PRES   REMARKS
GREELEY ARPT   MOCLDY    28  19  69 CALM      30.20R
AKRON          CLEAR     35  28  75 W14       30.17R WCI  26
BURLINGTON     CLEAR     36  28  73 W10       30.15S
WRAY           CLEAR     38  30  71 W8        30.13R
STERLING       CLEAR     41  32  70 CALM      30.14R
HOLYOKE        CLEAR     37  30  75 W10       30.11R
FORT MORGAN    CLEAR     32  27  81 W9        30.20R WCI  24
$$

COZ086-089-092>099-261400-
...SOUTHEAST COLORADO...

CITY           SKY/WX    TMP DP  RH WIND       PRES   REMARKS
PUEBLO         PTCLDY    26  23  88 N3        30.24R
LA JUNTA       CLEAR     34  27  75 W15       30.21R WCI  24
LAMAR          CLEAR     33  29  85 W7        30.18S WCI  27
SPRINGFIELD      N/A     37  27  67 W14       30.19R
$$



USA.gov is the U.S. government's official web portal to all federal, state and local government web resources and services.